Regional Weather Roundup
Issued by NWS

Home | Current Version | Previous Version | Graphics & Text | Print | Product List | Glossary On
Versions: 1 2 3 4 5 6 7 8 9 10 11 12 13 14 15 16 17 18 19 20 21 22 23 24 25 26 27 28 29 30 31 32 33 34 35 36 37 38 39 40 41 42 43 44 45 46 47 48 49 50
000
ASUS43 KTOP 180659
RWRKS

WEATHER ROUNDUP FOR KANSAS
NATIONAL WEATHER SERVICE GOODLAND KS
100 AM CST SUN FEB 18 2018

NOTE:  "FAIR" INDICATES FEW OR NO CLOUDS BELOW 12,000 FEET WITH NO
SIGNIFICANT WEATHER AND/OR OBSTRUCTIONS TO VISIBILITY.

KSZ001>006-013>018-027>032-041>047-180800-
NORTHWEST KANSAS

CITY           SKY/WX    TMP DP  RH WIND       PRES   REMARKS
GOODLAND       PTCLDY    37  13  37 S23G33    29.81F WCI  26
HAYS           CLOUDY    40  12  32 S21       29.99F WCI  30
HILL CITY      CLEAR     39  15  37 S12       29.95F WCI  32
RUSSELL        CLOUDY    42  13  30 S20       29.99F
$$

KSZ061>065-074>080-084>089-180800-
SOUTHWEST KANSAS

CITY           SKY/WX    TMP DP  RH WIND       PRES   REMARKS
DODGE CITY     CLOUDY    36  11  35 S13       30.01F WCI  27
GARDEN CITY    CLOUDY    34   9  35 S9        29.97F
GREAT BEND     CLOUDY    40  12  32 S15       30.03F WCI  32
LIBERAL        CLOUDY    37  15  40 S13       30.03F WCI  29
$$

KSZ066>073-081>083-090>101-180800-
SOUTHEAST KANSAS

CITY           SKY/WX    TMP DP  RH WIND       PRES   REMARKS
CHANUTE        CLOUDY    32  26  78 S8        30.19S
COFFEYVILLE    CLOUDY    35  32  88 SE3       30.21R
HUTCHINSON     CLOUDY    35  14  42 SE9       30.09F
MEDICINE LODGE   N/A     37  22  54 S6        30.10F
NEWTON         PTCLDY    37  12  35 S14       30.11F WCI  28
PARSONS        CLOUDY    32  30  92 CALM      30.20S
WICHITA INTL   CLOUDY    36  15  42 SE10      30.13F WCI  28
WICHITA JABRA  CLOUDY    34  15  46 S8        30.13F
WICHITA MCCONL CLOUDY    37  13  37 SE6       30.13S
WINFIELD       CLOUDY    35  19  52 SE5       30.16F
$$

KSZ007>012-019>026-033>040-048>060-102>105-180800-
NORTHEAST KANSAS

CITY           SKY/WX    TMP DP  RH WIND       PRES   REMARKS
CONCORDIA      CLEAR     39  15  37 S20       30.04F WCI  29
EMPORIA        CLOUDY    31  17  56 S10       30.14F WCI  22
LAWRENCE       CLEAR     22  19  89 E5        30.15F
MANHATTAN      CLEAR     27  16  63 W3        30.10F
OLATHE IND     CLEAR     33  21  61 SE9       30.16F
OLATHE EXE     CLEAR     35  20  54 SE7       30.16S
SALINA         CLOUDY    34  14  43 S10       30.07F WCI  26
TOPEKA BILLARD CLEAR     28  21  75 CALM      30.13F
TOPEKA FORBES  CLEAR     26  18  71 S6        30.12F
$$




USA.gov is the U.S. government's official web portal to all federal, state and local government web resources and services.